Back to catalog

STARLINK-30705

AliveCommunicationsVLEO
NORAD 57945·PAYLOAD·🇺🇸 United States

Launched Sep 25, 2023 from Vandenberg Space Force Base

Loading…

Next Passes (next 24 hours)

TLE

FreshSource: CelesTrak SupGP

Epoch: Sep 14, 2026, 20:41 UTC

1 57945C 23148L   26257.86229167  .00046157  00000+0  13632-2 0  2577
2 57945  53.1575 222.0975 0001241  94.6740 311.8758 15.34379494    16

Track STARLINK-30705 in real time with AllMySat

Download on the App Store